Weather History for KDEH - February, 2013

Change the Weather History Date:

Sunday, February 17, 2013

  Actual Average (KLSE) Record (KLSE)
Temperature  
Mean Temperature 20 °F 23 °F  
Max Temperature 30 °F 32 °F 64 °F (1981)
Min Temperature 10 °F 14 °F -26 °F (1979)
Degree Days  
Heating Degree Days 45 42  
Month to date heating degree days 755  
Since 1 July heating degree days 5074  
Cooling Degree Days 0 0  
Month to date cooling degree days 0  
Year to date cooling degree days 0  
Moisture  
Dew Point 13 °F    
Average Humidity 70    
Maximum Humidity 79    
Minimum Humidity 64    
Precipitation  
Precipitation 0.00 in 0.03 in 0.45 in (1887)
Month to date precipitation 0.59  
Year to date precipitation 1.71  
Snow  
Snow 0.00 in 0.30 in 4.50 in (1929)
Month to date snowfall 5.2  
Since 1 July snowfall 31.5  
Snow Depth -    
Sea Level Pressure  
Sea Level Pressure 29.97 in    
Wind  
Wind Speed 9 mph (SSE)    
Max Wind Speed 17 mph    
Max Gust Speed 30 mph    
Visibility 10 miles    
Events      
T = Trace of Precipitation, MM = Missing Value Source: NWS Daily Summary

Daily Weather History Graph

Daily Weather History Graph

Search for Another Location

Airport or City:

Trip Planner

Search our weather history database for the weather conditions in past years. The results will help you decide how hot, cold, wet, or windy it might be!

Date:

Astronomy

Feb. 17, 2013 Rise Set
Actual Time 7:01 AM CST 5:40 PM CST
Civil Twilight 6:32 AM CST 6:10 PM CST
Nautical Twilight 5:59 AM CST 6:43 PM CST
Astronomical Twilight 5:26 AM CST 7:16 PM CST
Moon 10:41 AM CST (2/17) 12:49 AM CST (2/17)
Length of Visible Light 11h 37m
Length of Day
10h 39m
Waxing Crescent, 49% of the Moon is Illuminated
Feb 17
Waxing Crescent
Feb 17
First Quarter
Feb 25
Full
Mar 4
Last Quarter
Mar 11
New

Hourly Weather History & Observations

Time (CST) Temp. Windchill Dew Point Humidity Pressure Visibility Wind Dir Wind Speed Gust Speed Precip Events Conditions
12:15 AM 10.4 °F -0.4 °F 5.0 °F 79% 30.11 in 10.0 mi ESE 6.9 mph - N/A   Clear
12:35 AM 10.4 °F 2.2 °F 3.2 °F 73% 30.11 in 10.0 mi SE 4.6 mph - N/A   Clear
12:55 AM 10.4 °F 0.8 °F 3.2 °F 73% 30.11 in 10.0 mi SE 5.8 mph - N/A   Clear
1:15 AM 10.4 °F 0.8 °F 3.2 °F 73% 30.11 in 10.0 mi SE 5.8 mph - N/A   Clear
1:35 AM 10.4 °F 0.8 °F 3.2 °F 73% 30.10 in 10.0 mi SE 5.8 mph - N/A   Clear
1:55 AM 10.4 °F 0.8 °F 3.2 °F 73% 30.11 in 10.0 mi SSE 5.8 mph - N/A   Clear
2:15 AM 10.4 °F 0.8 °F 3.2 °F 73% 30.11 in 10.0 mi SE 5.8 mph - N/A   Mostly Cloudy
2:35 AM 10.4 °F 2.2 °F 3.2 °F 73% 30.11 in - SE 4.6 mph - N/A   Overcast
2:55 AM 10.4 °F 0.8 °F 3.2 °F 73% 30.11 in 10.0 mi SSE 5.8 mph - N/A   Overcast
3:15 AM 10.4 °F -0.4 °F 3.2 °F 73% 30.10 in 10.0 mi SE 6.9 mph - N/A   Overcast
3:35 AM 12.2 °F 2.9 °F 3.2 °F 67% 30.10 in 10.0 mi SE 5.8 mph - N/A   Overcast
4:15 AM 12.2 °F 0.7 °F 3.2 °F 67% 30.10 in 10.0 mi SSE 8.1 mph - N/A   Overcast
4:35 AM 12.2 °F 1.7 °F 5.0 °F 73% 30.10 in 10.0 mi SSE 6.9 mph - N/A   Overcast
4:55 AM 14.0 °F 3.9 °F 5.0 °F 67% 30.10 in 10.0 mi SSE 6.9 mph - N/A   Unknown
5:15 AM 14.0 °F 2.9 °F 5.0 °F 67% 30.09 in 10.0 mi SSE 8.1 mph - N/A   Overcast
5:35 AM 14.0 °F 3.9 °F 6.8 °F 73% 30.09 in 10.0 mi South 6.9 mph - N/A   Overcast
5:55 AM 14.0 °F 2.9 °F 6.8 °F 73% 30.09 in 10.0 mi South 8.1 mph - N/A   Overcast
6:15 AM 14.0 °F 2.0 °F 6.8 °F 73% 30.09 in 10.0 mi South 9.2 mph - N/A   Overcast
6:35 AM 14.0 °F 3.9 °F 6.8 °F 73% 30.08 in 10.0 mi South 6.9 mph - N/A   Overcast
6:55 AM 14.0 °F 1.2 °F 6.8 °F 73% 30.07 in 10.0 mi South 10.4 mph - N/A   Mostly Cloudy
7:15 AM 14.0 °F 3.9 °F 6.8 °F 73% 30.07 in 10.0 mi SSE 6.9 mph - N/A   Partly Cloudy
7:35 AM 12.2 °F 1.7 °F 6.8 °F 79% 30.07 in 10.0 mi SE 6.9 mph - N/A   Clear
7:55 AM 14.0 °F 2.9 °F 6.8 °F 73% 30.06 in 10.0 mi SE 8.1 mph - N/A   Clear
8:15 AM 14.0 °F 2.9 °F 6.8 °F 73% 30.06 in 10.0 mi SSE 8.1 mph - N/A   Clear
8:35 AM 14.0 °F 1.2 °F 8.6 °F 79% 30.06 in 10.0 mi SSE 10.4 mph - N/A   Clear
8:55 AM 15.8 °F 4.2 °F 8.6 °F 73% 30.05 in 10.0 mi SSE 9.2 mph 17.3 mph N/A   Clear
9:15 AM 15.8 °F 0.9 °F 8.6 °F 73% 30.05 in 10.0 mi SSE 15.0 mph 20.7 mph N/A   Clear
9:35 AM 17.6 °F 5.0 °F 8.6 °F 68% 30.06 in 10.0 mi SSE 11.5 mph 18.4 mph N/A   Clear
9:55 AM 17.6 °F 4.3 °F 10.4 °F 73% 30.05 in 10.0 mi SSE 12.7 mph - N/A   Clear
10:15 AM 19.4 °F 7.2 °F 10.4 °F 68% 30.06 in 10.0 mi SSE 11.5 mph - N/A   Clear
10:35 AM 19.4 °F 6.0 °F 12.2 °F 74% 30.06 in 10.0 mi SSE 13.8 mph - N/A   Clear
10:55 AM 21.2 °F 9.5 °F 12.2 °F 68% 30.04 in 10.0 mi SSE 11.5 mph - N/A   Clear
11:15 AM 23.0 °F 11.7 °F 14.0 °F 68% 30.04 in 10.0 mi SSE 11.5 mph 17.3 mph N/A   Clear
11:35 AM 23.0 °F 11.1 °F 14.0 °F 68% 30.03 in 10.0 mi SSE 12.7 mph 18.4 mph N/A   Clear
11:55 AM 24.8 °F 14.0 °F 15.8 °F 69% 30.03 in 10.0 mi SSE 11.5 mph 21.9 mph N/A   Clear
12:15 PM 24.8 °F 12.9 °F 15.8 °F 69% 30.01 in 10.0 mi SSE 13.8 mph 19.6 mph N/A   Clear
12:35 PM 26.6 °F 16.2 °F 17.6 °F 69% 29.99 in 10.0 mi SSE 11.5 mph 20.7 mph N/A   Clear
12:55 PM 26.6 °F 15.2 °F 17.6 °F 69% 29.98 in 10.0 mi SSE 13.8 mph 20.7 mph N/A   Clear
1:15 PM 26.6 °F 15.7 °F 17.6 °F 69% 29.97 in 10.0 mi SE 12.7 mph 20.7 mph N/A   Clear
1:35 PM 28.4 °F 18.0 °F 17.6 °F 64% 29.96 in 10.0 mi SE 12.7 mph 20.7 mph N/A   Clear
1:55 PM 28.4 °F 17.0 °F 17.6 °F 64% 29.95 in 10.0 mi SSE 15.0 mph 21.9 mph N/A   Clear
2:15 PM 28.4 °F 18.5 °F 19.4 °F 69% 29.93 in 10.0 mi SSE 11.5 mph 23.0 mph N/A   Clear
2:35 PM 30.2 °F 19.3 °F 19.4 °F 64% 29.93 in 10.0 mi SE 15.0 mph 23.0 mph N/A   Clear
2:55 PM 30.2 °F 19.3 °F 19.4 °F 64% 29.92 in 10.0 mi SE 15.0 mph 20.7 mph N/A   Clear
3:15 PM 30.2 °F 19.3 °F 19.4 °F 64% 29.91 in 10.0 mi SSE 15.0 mph 23.0 mph N/A   Clear
3:35 PM 30.2 °F 18.9 °F 19.4 °F 64% 29.90 in 10.0 mi SE 16.1 mph 23.0 mph N/A   Clear
3:55 PM 30.2 °F 20.8 °F 21.2 °F 69% 29.88 in 10.0 mi SE 11.5 mph 19.6 mph N/A   Clear
4:15 PM 30.2 °F 20.2 °F 21.2 °F 69% 29.88 in 10.0 mi SSE 12.7 mph 18.4 mph N/A   Clear
4:35 PM 30.2 °F 18.9 °F 19.4 °F 64% 29.87 in 10.0 mi SSE 16.1 mph 24.2 mph N/A   Clear
4:55 PM 30.2 °F 20.2 °F 21.2 °F 69% 29.87 in 10.0 mi SE 12.7 mph 21.9 mph N/A   Clear
5:15 PM 30.2 °F 19.8 °F 19.4 °F 64% 29.87 in 10.0 mi SSE 13.8 mph - N/A   Clear
5:35 PM 28.4 °F 16.6 °F 19.4 °F 69% 29.86 in 10.0 mi SSE 16.1 mph - N/A   Clear
5:55 PM 28.4 °F 18.5 °F 19.4 °F 69% 29.85 in 10.0 mi SE 11.5 mph 21.9 mph N/A   Clear
6:15 PM 28.4 °F 18.5 °F 19.4 °F 69% 29.84 in 10.0 mi SSE 11.5 mph 19.6 mph N/A   Clear
6:55 PM 28.4 °F 18.5 °F 19.4 °F 69% 29.83 in 10.0 mi SE 11.5 mph 19.6 mph N/A   Clear
7:15 PM 28.4 °F 18.5 °F 21.2 °F 74% 29.83 in 10.0 mi SSE 11.5 mph 19.6 mph N/A   Clear
7:35 PM 28.4 °F 18.0 °F 21.2 °F 74% 29.82 in 10.0 mi SSE 12.7 mph 21.9 mph N/A   Clear
7:55 PM 28.4 °F 18.0 °F 21.2 °F 74% 29.81 in 10.0 mi SSE 12.7 mph 21.9 mph N/A   Clear
8:15 PM 28.4 °F 17.0 °F 21.2 °F 74% 29.81 in 10.0 mi SSE 15.0 mph 20.7 mph N/A   Clear
8:35 PM 28.4 °F 16.6 °F 21.2 °F 74% 29.80 in 10.0 mi SSE 16.1 mph 25.3 mph N/A   Clear
8:55 PM 28.4 °F 16.6 °F 21.2 °F 74% 29.79 in 10.0 mi SSE 16.1 mph 29.9 mph N/A   Unknown
9:15 PM 28.4 °F 16.2 °F 21.2 °F 74% 29.78 in 10.0 mi SSE 17.3 mph 25.3 mph N/A   Clear
9:35 PM 30.2 °F 18.9 °F 21.2 °F 69% 29.76 in 10.0 mi SSE 16.1 mph 25.3 mph N/A   Clear
9:55 PM 30.2 °F 18.5 °F 21.2 °F 69% 29.76 in 10.0 mi SSE 17.3 mph 24.2 mph N/A   Clear
10:15 PM 30.2 °F 18.9 °F 21.2 °F 69% 29.75 in 10.0 mi SSE 16.1 mph 23.0 mph N/A   Clear
10:35 PM 30.2 °F 20.2 °F 21.2 °F 69% 29.76 in 10.0 mi SSE 12.7 mph 19.6 mph N/A   Clear
10:55 PM 30.2 °F 20.2 °F 21.2 °F 69% 29.76 in 10.0 mi SSE 12.7 mph 19.6 mph N/A   Partly Cloudy
11:15 PM 30.2 °F 20.8 °F 21.2 °F 69% 29.75 in 10.0 mi SSE 11.5 mph 19.6 mph N/A   Unknown
11:35 PM 30.2 °F 19.8 °F 21.2 °F 69% 29.73 in 10.0 mi SSE 13.8 mph 20.7 mph N/A   Partly Cloudy
11:55 PM 30.2 °F 20.2 °F 21.2 °F 69% 29.72 in 10.0 mi SSE 12.7 mph 21.9 mph N/A   Partly Cloudy